Location: Mazalinos
(40.3374°N, 5.6053°W)
Time: 20:29:23
(UTC+00:00)

Daily predictions for brighter satellites

Satellite Brightness Start Highest point End
(mag) Time Altitude Azimuth Time Altitude Azimuth Time Altitude Azimuth
USA 215 4.2 20:22:09 10° ENE 20:27:19 24° ESE 20:32:26 10° S
Atlas Centaur 2 3.1 20:23:13 10° SW 20:27:53 31° S 20:33:35 10° ESE
Cosmos 1356 Rocket 4.1 20:24:51 10° NNW 20:29:02 58° W 20:33:08 10° S
Cosmos 2150 Rocket 4.2 20:24:26 10° NNW 20:29:38 75° WSW 20:34:53 10° S
Cosmos 2333 Rocket 3.4 20:28:12 10° SSE 20:32:18 21° E 20:36:26 10° NE
Meteor 2-1 Rocket 4.5 20:27:35 10° N 20:33:22 59° ENE 20:39:10 10° SSE
ARGOS 4.4 20:29:49 10° S 20:34:57 43° W 20:40:08 10° NNW
MetOp-A 4.3 20:32:02 10° SSE 20:37:23 81° WSW 20:42:46 10° NNW
CZ-2C R/B 2.8 20:32:34 10° N 20:37:58 79° WNW 20:43:13 10° SSW
Delta 2 Rocket 3.5 20:34:51 10° WSW 20:38:06 37° S 20:41:13 10° ESE
SL-16 R/B 3.2 20:35:28 10° SW 20:40:58 53° WNW 20:46:32 10° NNE
Cosmos 1812 Rocket 3.8 20:36:50 10° N 20:41:05 52° E 20:45:17 10° SSE
Ariane Rocket 4.3 20:37:33 10° SSW 20:42:18 39° W 20:47:04 10° NNW
GEOS 3 Rocket 4.2 20:37:51 10° NE 20:42:48 36° ESE 20:47:42 10° S
Cosmos 1602 Rocket 3.6 20:39:59 10° S 20:44:23 84° E 20:48:51 10° N
OAO 2 Rocket 3.8 20:43:08 10° WSW 20:48:09 44° S 20:53:11 10° E
ATLAS 5 CENTAUR R/B 1.4 20:45:05 10° SSW 20:49:07 82° ESE 20:53:35 10° NE
FALCON 9 R/B 2.5 20:48:13 10° SW 20:49:30 13° SSW 20:50:39 10° S
Cosmos 2278 Rocket 4.4 20:52:02 10° NNE 20:53:56 12° NE 20:55:51 10° ENE
Meteor 2-10 Rocket 3.5 20:49:20 10° N 20:54:28 70° E 20:59:46 10° SSE
Cosmos 1125 Rocket 3.8 20:51:33 10° NNW 20:56:47 68° WSW 21:02:01 10° S
Cosmos 1844 Rocket 3.1 20:51:42 10° NNW 20:57:06 49° ENE 21:01:37 14° SE
Nadezhda 1 Rocket 4.1 20:52:57 10° N 20:59:22 73° E 21:05:43 10° SSE
SPOT 1/Viking Rocket 4.3 21:00:43 14° SE 21:04:33 36° ENE 21:09:15 10° N
Cosmos-2242 3.5 21:04:47 10° N 21:08:59 46° E 21:11:57 18° SE
Cosmos 1400 Rocket 3.3 21:05:49 10° N 21:09:37 43° ENE 21:12:01 19° SE
SPOT 3 Rocket 4.3 21:05:50 10° S 21:10:53 51° W 21:15:58 10° NNW
Resurs 01 Rocket 2.0 21:09:23 10° S 21:13:45 65° WSW 21:18:09 10° NNW
Terra 3.5 21:14:58 14° ESE 21:17:29 20° ENE 21:20:53 10° NNE
SAR-Lupe-2 4.0 21:17:52 10° NNE 21:21:16 40° E 21:22:58 24° SSE
Cosmos 2322 Rocket 4.4 21:23:01 10° WSW 21:27:46 28° NW 21:32:32 10° N
Cosmos 1758 Rocket 4.0 21:25:37 10° SSW 21:30:04 64° W 21:34:33 10° N
Cosmos 1455 3.0 21:28:48 10° NNW 21:32:32 49° W 21:35:38 14° SSW
Alouette 2 Rocket 3.8 21:29:18 10° N 21:33:21 76° E 21:37:00 21° SSE
Cosmos 1328 4.0 21:29:53 10° SSW 21:33:50 69° W 21:37:48 10° N
USA 245 3.0 21:32:31 29° SSE 21:34:07 90° WSW 21:38:08 10° NNW
NOSS 3-3 (A) 3.8 21:30:27 10° SSW 21:36:08 72° ESE 21:42:30 10° NE
NOSS 3-3 (C) 3.8 21:30:33 10° SSW 21:36:15 71° ESE 21:42:37 10° NE
Cosmos 1538 Rocket 4.0 21:38:50 12° S 21:43:44 69° ESE 21:49:03 10° NNE
Cosmos 1703 4.4 21:40:53 10° SSW 21:44:34 42° WNW 21:48:17 10° N
OAO 3 Rocket 4.1 21:45:14 10° WSW 21:49:33 31° SSW 21:50:39 28° S
COSMOS 2428 2.6 21:44:38 10° SSW 21:50:18 79° ESE 21:55:59 10° NNE
IRIS 3.8 21:48:10 10° W 21:51:07 70° N 21:51:23 62° NE
Cosmos 2322 4.3 21:47:27 10° SW 21:53:04 59° WNW 21:58:45 10° NNE
Cosmos 1953 Rocket 3.8 21:50:02 16° SSW 21:53:22 66° W 21:57:40 10° N
Cosmos 2084 4.3 21:50:01 10° NNW 21:54:16 42° NE 21:56:03 28° E
Cosmos 1844 3.9 21:48:59 10° NNW 21:54:44 71° WSW 21:57:55 27° S
DELTA 2 R/B (1) 3.6 21:49:57 10° WSW 21:55:23 55° SSE 22:00:50 10° E
ATLAS 2AS CENTAUR R/B 4.3 21:50:37 10° NNW 21:57:03 29° NE 22:02:39 11° E
Cosmos 2074 Rocket 4.3 21:54:31 28° SSE 21:57:27 48° E 22:03:23 10° NNE
Cosmos 2181 Rocket 4.0 21:52:10 10° N 21:58:31 80° E 22:02:01 28° SSE
ERS-1 Rocket 2.9 21:56:49 32° SSE 21:59:13 82° ENE 22:04:17 10° N
ATLAS CENTAUR R/B 1.7 21:56:39 10° NNW 22:00:10 44° NE 22:00:56 37° E
Cosmos 2237 Rocket 2.8 21:59:39 32° SE 22:01:04 36° ESE 22:06:15 10° NE
Cosmos 2219 Rocket 2.3 21:56:18 10° SSW 22:01:52 74° WNW 22:07:29 10° NNE
Cosmos 1869 4.2 21:58:24 10° NNE 22:02:04 33° ENE 22:02:34 32° E
SPOT 5 2.9 22:02:26 35° SSE 22:04:36 79° ENE 22:09:27 10° N
Cosmos 2360 Rocket 4.4 22:00:14 10° WSW 22:04:56 26° NW 22:09:41 10° N
Cosmos 1842 Rocket 3.9 22:01:28 10° N 22:05:41 48° E 22:06:34 41° ESE
Cosmos 2344 4.0 22:05:03 28° SSE 22:07:51 37° ESE 22:14:41 10° NE
Meteor 1-27 4.2 22:02:10 10° N 22:07:56 82° E 22:10:38 34° SSE
USA 215 3.3 22:04:12 10° NE 22:10:46 85° NW 22:17:19 10° SW
Cosmos 2333 Rocket 2.9 22:10:33 10° SW 22:16:05 53° WNW 22:21:42 10° NNE
Atlas Centaur 2 3.3 22:11:09 10° WSW 22:16:30 31° S 22:17:12 30° S
Cosmos 967 Rocket 4.5 22:16:32 10° SSW 22:23:00 88° ESE 22:29:31 10° NNE
Cosmos 1315 Rocket 3.0 22:20:32 10° NNW 22:24:37 66° W 22:25:29 50° SSW
NOSS 0 Rocket 3.8 22:22:19 25° SSW 22:26:01 79° ESE 22:32:12 10° NNE
Cosmos 1892 3.0 22:26:26 50° ENE 22:26:26 50° ENE 22:29:49 10° NNE
CARTOSAT-1 4.2 22:26:48 35° SSW 22:28:07 47° W 22:32:17 10° NNW
OAO 2 Rocket 3.7 22:27:33 10° WSW 22:32:34 45° S 22:32:34 45° S
Meteor 2-2 Rocket 4.2 22:28:22 10° N 22:34:11 78° E 22:35:55 47° SSE
Cosmos 1408 3.8 22:37:57 32° NE 22:37:57 32° NE 22:40:19 10° NNE
Cosmos 2278 Rocket 2.2 22:33:27 10° NNW 22:39:07 69° ENE 22:40:40 47° SE
Cosmos 1844 Rocket 4.4 22:36:24 10° NW 22:40:35 22° W 22:43:18 16° SW
Cosmos 1680 Rocket 3.4 22:39:45 51° S 22:41:03 74° ESE 22:46:23 10° NNE
USA 267 4.0 22:36:39 19° E 22:41:10 49° NNE 22:47:25 10° NW
SL-16 R/B 3.2 22:46:35 30° E 22:46:35 30° E 22:51:07 10° NE
Cosmos 2221 2.7 22:47:19 10° NNW 22:51:38 60° W 22:52:05 56° SW
Terra 2.5 22:53:51 38° SW 22:54:53 44° W 22:59:26 10° NNW
Cosmos 2184 Rocket 4.4 22:53:36 29° SSW 22:56:45 60° W 23:02:59 10° N
In-Cosmos 22 Rocket 4.3 22:56:02 42° SW 22:57:46 66° W 23:03:03 10° N
Cosmos 923 Rocket 4.5 22:56:41 31° SW 22:59:02 58° WNW 23:04:15 10° NNE
BREEZE-M (TANK) 4.4 22:56:17 10° WSW 23:00:52 84° NNW 23:22:26 10° ENE
Cosmos 2058 3.4 23:03:48 51° W 23:04:07 52° W 23:08:11 10° N
Okean 3 Rocket 4.4 23:07:35 39° ENE 23:07:35 39° ENE 23:11:08 10° NNE
TSX-5 4.3 23:09:14 10° NW 23:12:24 55° WNW 23:12:24 55° WNW
Cosmos 1825 2.9 23:14:44 49° NNE 23:14:44 49° NNE 23:17:36 10° N
Cosmos 2218 Rocket 4.5 23:17:43 42° ESE 23:18:35 44° E 23:24:32 10° NNE
NOSS 3-4 (A) 3.9 23:13:45 10° NNW 23:20:54 82° NE 23:23:28 46° SE
NOSS 3-4 (C) 3.9 23:13:52 10° NNW 23:21:01 81° NE 23:23:36 46° SE
Cosmos 1624 Rocket 3.9 23:15:54 10° NNW 23:21:08 69° ENE 23:21:30 66° E
Cosmos 2366 rocket 4.4 23:21:57 43° ESE 23:22:48 46° E 23:28:48 10° NNE
BREEZE-M DEB (TANK) 3.7 23:24:22 10° WNW 23:27:09 29° WNW 23:27:09 29° WNW
Cosmos 2369 Rocket 4.3 23:26:36 10° N 23:30:25 18° NE 23:33:19 13° E
Cosmos 2151 3.3 23:32:17 65° NNW 23:32:17 65° NNW 23:36:06 10° N
ATLAS CENTAUR R/B 3.9 23:37:02 10° W 23:37:06 10° W 23:37:06 10° W
COSMOS 2455 4.2 23:33:49 10° NNW 23:39:12 32° NE 23:41:47 23° E
Thor Agena Rocket 4.0 23:36:15 10° N 23:41:12 53° WNW 23:42:04 47° WSW
Cosmos 2341 Rocket 4.0 23:40:08 57° SSW 23:41:26 75° W 23:47:40 10° N
DELTA 2 R/B (1) 3.4 23:36:05 10° W 23:41:42 84° S 23:42:01 79° ESE
Cosmos 2237 Rocket 3.7 23:41:25 16° WSW 23:45:07 32° WNW 23:50:14 10° N
Spot 4 4.1 23:45:58 56° W 23:45:58 56° W 23:50:29 10° NNW
ATLAS 2AS CENTAUR R/B 2.6 23:41:21 10° NW 23:48:46 74° WSW 23:50:03 60° S
Cosmos 1371 Rocket 4.2 23:44:00 10° NNW 23:49:11 58° WSW 23:49:11 58° WSW
Cosmos 1408 Rocket 4.2 23:52:07 51° NE 23:52:07 51° NE 23:55:37 10° NNE
Cosmos 1151 Rocket 3.5 23:49:01 10° N 23:52:34 58° NNE 23:52:34 58° NNE
Cosmos 1346 Rocket 4.3 23:55:57 30° NE 23:55:57 30° NE 23:58:17 10° NNE
